(150642) = 2001 CZ31

Discovered at Mauna Kea on 2001-02-03 by C. Veillet.

Orbit

Orbit type: Distant object

Note: WebGL enabled browser required.

epoch2024-03-31.0
epoch JD2460400.5
perihelion date2034-08-04.19460
perihelion JD2464178.69460
argument of perihelion (°)46.40260
ascending node (°)136.22736
inclination (°)10.22079
eccentricity0.1159554
perihelion distance (AU)39.8169288
Tisserand w.r.t. Jupiter5.9
ΔV w.r.t. Earth (km/sec)12.5
semimajor axis (AU)45.0395042
mean anomaly (°)347.68036
mean daily motion (°/day)0.00326070
aphelion distance (AU)50.262
period (years)302
P-vector [x]-0.99099644
P-vector [y]-0.08560143
P-vector [z]0.10294879
Q-vector [x]0.05345574
Q-vector [y]-0.95793861
Q-vector [z]-0.28195055
absolute magnitude5.98
phase slope0.15
uncertainty3
referenceE2024-G02
observations used230
oppositions22
arc length (days)8457
first opposition used2001
last opposition used2024
residual rms (arc-secs)0.53
perturbers coarse indicatorM-v
perturbers precise indicator003Ek
first observation date used2001-02-03.0
last observation date used2024-03-31.0
computer nameMPCLINUX
Minimum Orbit Intersection Distances (in AU)
for orbit epoch: 2460400.5, reference: E2024-G02
Mercury39.4177
Venus39.0986
Earth38.8287
Mars38.1752
Jupiter34.4047
Saturn30.2735
Uranus21.5611
Neptune9.77783

Observations

232 total observations over interval: 2001 02 03.32024 – 2023 04 16.283690
These data are available for download (format description).

Date (UT) J2000 RA J2000 Dec Magn Location Ref
2001 02 03.32024 09 02 03.27 +16 19 37.0   568 – Maunakea MPS 26947
2001 02 03.34231 09 02 03.16 +16 19 37.6   568 – Maunakea MPS 26947
2001 02 04.41270 09 01 57.83 +16 20 03.1 21.4   568 – Maunakea MPS 26947
2001 02 04.43389 09 01 57.71 +16 20 03.6   568 – Maunakea MPS 26947
2001 02 20.30002 09 00 41.09 +16 26 12.7 21.6 R 568 – Maunakea MPS 26947
2001 02 20.51980 09 00 40.04 +16 26 17.6 21.7 R 568 – Maunakea MPS 26947
2001 02 21.34075 09 00 36.26 +16 26 35.9   568 – Maunakea MPS 26947
2001 03 11.06678 08 59 22.12 +16 32 42.8 21.4   304 – Las Campanas Observatory MPS 49333
2001 03 11.09326 08 59 22.01 +16 32 43.4   304 – Las Campanas Observatory MPS 49333
2001 03 24.18356 08 58 39.53 +16 36 22.2 21.5 R 695 – Kitt Peak MPS 27994
2001 03 24.29420 08 58 39.23 +16 36 23.8   695 – Kitt Peak MPS 27994
2001 03 28.17874 08 58 29.23 +16 37 18.3 21.5 R 688 – Lowell Observatory, Anderson Mesa Station MPS 27994
2001 03 28.25734 08 58 29.05 +16 37 19.0   688 – Lowell Observatory, Anderson Mesa Station MPS 27994
2001 12 12.19146 09 11 38.29 +15 51 42.6   950 – La Palma MPS 43559
2001 12 12.23185 09 11 38.20 +15 51 43.1   950 – La Palma MPS 43559
2001 12 13.14961 09 11 35.98 +15 51 54.8   950 – La Palma MPS 43559
2001 12 13.17259 09 11 35.93 +15 51 55.3   950 – La Palma MPS 43559
2002 11 30.54015 09 17 54.15 +15 38 51.2 21.7 R 568 – Maunakea MPS 67751
2002 11 30.61364 09 17 54.06 +15 38 51.8   568 – Maunakea MPS 67751
2002 12 01.54916 09 17 52.98 +15 38 59.6   568 – Maunakea MPS 67751
2004 02 17.05691 09 18 58.13 +15 53 34.5 21.1 R 493 – Calar Alto MPS 186769
2004 02 17.06384 09 18 58.10 +15 53 34.6 21.1 R 493 – Calar Alto MPS 186769
2004 02 17.14602 09 18 57.70 +15 53 36.8 21.4 R 493 – Calar Alto MPS 186769
2004 02 17.15295 09 18 57.67 +15 53 37.2 21.4 R 493 – Calar Alto MPS 186769
2004 02 17.86280 09 18 54.24 +15 53 54.7 21.4 R 493 – Calar Alto MPS 186769
2004 02 17.95831 09 18 53.79 +15 53 56.9 21.1 R 493 – Calar Alto MPS 186769
2004 02 17.99598 09 18 53.60 +15 53 57.9 21.2 R 493 – Calar Alto MPS 186769
2004 02 18.03144 09 18 53.43 +15 53 58.7 21.1 R 493 – Calar Alto MPS 186769
2004 02 18.08632 09 18 53.16 +15 54 00.1 21.3 R 493 – Calar Alto MPS 186769
2004 02 18.12630 09 18 52.97 +15 54 01.0 21.2 R 493 – Calar Alto MPS 186769
2004 02 19.01233 09 18 48.701 +15 54 23.06 21.7 V 493 – Calar Alto MPS 257588
2004 02 19.01522 09 18 48.70 +15 54 23.0 21.4 R 493 – Calar Alto MPS 186769
2004 02 19.03456 09 18 48.578 +15 54 23.50 21.7 V 493 – Calar Alto MPS 257588
2004 02 19.03745 09 18 48.59 +15 54 23.5 21.1 R 493 – Calar Alto MPS 186769
2004 02 19.08220 09 18 48.365 +15 54 24.95 21.5 V 493 – Calar Alto MPS 257588
2004 02 19.08509 09 18 48.37 +15 54 24.8 21.2 R 493 – Calar Alto MPS 186769
2004 02 19.10457 09 18 48.449 +15 54 26.70 21.8 V 493 – Calar Alto MPS 257588
2004 02 19.10747 09 18 48.26 +15 54 25.3 21.3 R 493 – Calar Alto MPS 186769
2005 02 10.32004 09 25 28.44 +15 39 17.9 22.3 g 568 – Maunakea MPS 133238
2005 02 10.40020 09 25 28.04 +15 39 20.0 22.3 g 568 – Maunakea MPS 133238
2005 02 10.44045 09 25 27.85 +15 39 21.0 22.2 g 568 – Maunakea MPS 133238
2005 03 12.196655 09 23 12.09 +15 51 11.7 21.9 V 645 – Apache Point-Sloan Digital Sky Survey MPS 598207
2005 03 12.197884 09 23 12.09 +15 51 11.7 22.1 V 645 – Apache Point-Sloan Digital Sky Survey MPS 598207
2005 03 12.199972 09 23 12.08 +15 51 11.8 22.6 V 645 – Apache Point-Sloan Digital Sky Survey MPS 598207
2005 12 06.460652 09 35 31.80 +15 03 37.7 22.1 V 645 – Apache Point-Sloan Digital Sky Survey MPS 598207
2005 12 06.461481 09 35 31.80 +15 03 37.7 21.5 V 645 – Apache Point-Sloan Digital Sky Survey MPS 598207
2005 12 06.463969 09 35 31.80 +15 03 37.8 22.5 V 645 – Apache Point-Sloan Digital Sky Survey MPS 598207
2006 01 18.34476 09 33 20.55 +15 16 50.6 21.4 R 250 – Hubble Space Telescope MPS 284158
2006 01 18.34916 09 33 20.52 +15 16 50.8   250 – Hubble Space Telescope MPS 284158
2006 01 18.35356 09 33 20.50 +15 16 50.9   250 – Hubble Space Telescope MPS 284158
2006 01 18.35796 09 33 20.48 +15 16 51.0   250 – Hubble Space Telescope MPS 284158
2007 02 18.35699 09 36 55.10 +15 17 12.2 21.6 R 568 – Maunakea MPS 201424
2007 02 18.37223 09 36 55.02 +15 17 12.7   568 – Maunakea MPS 201424
2007 02 18.38836 09 36 54.93 +15 17 12.9   568 – Maunakea MPS 201424
2007 02 20.39815 09 36 45.16 +15 18 06.7 21.5 R 568 – Maunakea MPS 201424
2007 02 20.41900 09 36 45.08 +15 18 07.0   568 – Maunakea MPS 201424
2007 02 20.43657 09 36 44.98 +15 18 07.7 21.6 R 568 – Maunakea MPS 201424
2007 02 23.162801 09 36 31.90 +15 19 18.3 22.2   H55 – Astronomical Research Observatory, Charleston MPS 201424
2007 02 23.218287 09 36 31.74 +15 19 20.0 22.4   H55 – Astronomical Research Observatory, Charleston MPS 201424
2007 02 23.250744 09 36 31.56 +15 19 20.4 22.1   H55 – Astronomical Research Observatory, Charleston MPS 201424
2010 02 09.415217 09 55 44.440 +14 30 25.56 21.0 G F51 – Pan-STARRS 1, Haleakala MPS 1222193
2010 02 11.366353 09 55 35.009 +14 31 21.31 21.1 G F51 – Pan-STARRS 1, Haleakala MPS 1222193
2010 02 11.367699 09 55 34.996 +14 31 21.51 21.2 G F51 – Pan-STARRS 1, Haleakala MPS 1222193
2010 02 11.376726 09 55 34.972 +14 31 21.55 21.1 G F51 – Pan-STARRS 1, Haleakala MPS 1222193
2010 02 11.378059 09 55 34.958 +14 31 21.60 22.0 G F51 – Pan-STARRS 1, Haleakala MPS 1222193
2010 02 13.354757 09 55 25.375 +14 32 18.10 21.7 G F51 – Pan-STARRS 1, Haleakala MPS 1222193
2010 02 13.364731 09 55 25.289 +14 32 18.19 21.8 G F51 – Pan-STARRS 1, Haleakala MPS 1222193
2010 03 04.504116 09 53 53.653 +14 41 03.64 21.9 G F51 – Pan-STARRS 1, Haleakala MPS 1222193
2010 05 31.274653 09 51 32.791 +14 53 49.83 22.3 G F51 – Pan-STARRS 1, Haleakala MPS 1222193
2010 05 31.283896 09 51 32.813 +14 53 49.68 21.9 G F51 – Pan-STARRS 1, Haleakala MPS 1222193
2010 06 01.269461 09 51 35.057 +14 53 37.88 22.4 G F51 – Pan-STARRS 1, Haleakala MPS 1222193
2010 06 01.276745 09 51 35.107 +14 53 37.80 21.6 G F51 – Pan-STARRS 1, Haleakala MPS 1222193
2011 01 30.53875 10 02 34.918 +14 10 01.81 21.7 w F51 – Pan-STARRS 1, Haleakala MPS 720711
2011 01 30.55397 10 02 34.855 +14 10 02.25 21.9 w F51 – Pan-STARRS 1, Haleakala MPS 720711
2011 01 30.57131 10 02 34.769 +14 10 02.74 22.0 w F51 – Pan-STARRS 1, Haleakala MPS 720711
2011 01 30.58642 10 02 34.707 +14 10 03.13 22.1 w F51 – Pan-STARRS 1, Haleakala MPS 720711
2011 02 03.591543 10 02 16.226 +14 11 57.31 22.0 G F51 – Pan-STARRS 1, Haleakala MPS 1222193
2011 02 03.602980 10 02 16.187 +14 11 58.04 21.5 G F51 – Pan-STARRS 1, Haleakala MPS 1222193
2011 03 10.24042 09 59 31.66 +14 28 04.7 21.5 R 688 – Lowell Observatory, Anderson Mesa Station MPS 375245
2011 03 10.29007 09 59 31.44 +14 28 06.1   688 – Lowell Observatory, Anderson Mesa Station MPS 375245
2011 05 29.26296 09 57 21.109 +14 39 35.46 22.2 w F51 – Pan-STARRS 1, Haleakala MPS 720711
2011 05 29.26772 09 57 21.119 +14 39 35.67 22.1 w F51 – Pan-STARRS 1, Haleakala MPS 720711
2011 05 29.27252 09 57 21.133 +14 39 35.55 22.0 w F51 – Pan-STARRS 1, Haleakala MPS 720711
2011 05 29.27730 09 57 21.143 +14 39 35.44 22.0 w F51 – Pan-STARRS 1, Haleakala MPS 720711
2012 02 04.52659 10 08 16.383 +13 56 02.30 21.7 i F51 – Pan-STARRS 1, Haleakala MPS 720711
2012 02 04.59310 10 08 16.080 +13 56 04.14 21.4 r F51 – Pan-STARRS 1, Haleakala MPS 720711
2012 02 04.60397 10 08 16.013 +13 56 04.85 21.4 r F51 – Pan-STARRS 1, Haleakala MPS 720711
2013 02 09.379342 10 13 54.361 +13 41 54.15 22.0 G F51 – Pan-STARRS 1, Haleakala MPS 1222193
2013 02 09.394289 10 13 54.280 +13 41 54.60 21.6 G F51 – Pan-STARRS 1, Haleakala MPS 1222193
2013 02 09.409377 10 13 54.219 +13 41 55.02 22.2 G F51 – Pan-STARRS 1, Haleakala MPS 1222193
2013 02 09.424511 10 13 54.139 +13 41 55.37 21.4 G F51 – Pan-STARRS 1, Haleakala MPS 1222193
2014 02 10.391407 10 19 55.656 +13 24 46.49 22.0 G F51 – Pan-STARRS 1, Haleakala MPS 1222193
2014 02 10.403269 10 19 55.586 +13 24 47.10 22.3 G F51 – Pan-STARRS 1, Haleakala MPS 1222193
2014 02 10.427025 10 19 55.498 +13 24 47.81 22.0 G F51 – Pan-STARRS 1, Haleakala MPS 1222193
2014 02 26.345931 10 18 39.364 +13 32 44.39 21.0 G F51 – Pan-STARRS 1, Haleakala MPS 1222193
2014 02 26.357848 10 18 39.292 +13 32 44.76 21.3 G F51 – Pan-STARRS 1, Haleakala MPS 1222193
2014 02 26.369758 10 18 39.247 +13 32 45.24 21.6 G F51 – Pan-STARRS 1, Haleakala MPS 1222193
2014 02 26.381677 10 18 39.180 +13 32 45.52 21.5 G F51 – Pan-STARRS 1, Haleakala MPS 1222193
2014 04 04.246383 10 16 02.866 +13 47 52.18 21.9 G F51 – Pan-STARRS 1, Haleakala MPS 1222193
